Campo Grande Airport
SBCG : now visible

Airfield :











YOU CAN JOIN US ON...

 
LOGIN :

Register | Disclaimer

   EN    FR    IT 

 









Legend :    VFR   Marginal VFR   IFR   Intensive IFR   Very Intensive IFR
Visi :
Ceiling :
>= 8 km
>= 3000ft
5 to 8 km
1000 to 3000 ft
1500m to 5 km
500 to 1000 ft
800 to 1500m
200 to 500 ft
< 800m
< 200 ft
Symbols :   Thunderstorms  Fog  Heavy snow  Heavy precipitations  Wind > 20 kt






- Airport Elevation : 1833 ft
- IATA code : CGR


SBCG - Campo Grande

CURRENT METAR :
  • 081000Z 13006KT 9999 FEW030 SCT100 16/13 Q1017

EXPIRED METARs :
  • 080900Z 12006KT 9999 FEW030 BKN100 17/13 Q1017
  • 080800Z 12006KT 9999 FEW030 BKN100 17/14 Q1017

TAF TAF SBCG
Valid from the 08 at 06:00 until the 09 at 06:00 UTC


080300Z 0806/0906 14005KT CAVOK TN20/0809Z TX30/0818Z
BECMG 0809/0811 09008KT
BECMG 0812/0814 9999 SCT035
BECMG 0815/0817 24008KT
BECMG 0818/0820 16005KT FEW035
BECMG 0821/0823 CAVOK
BECMG 0901/0903 14005KT RMK PDL



MET'MAP, your aeronautical weather chart ! - Copyright ORBIFLY December 2007 - Disclaimer

ORBIFLY MET'MAP TEAM :

Programming & Development : Alexandra Zaïnal
Concept & original design : Baudouin d'Aumeries
Assistance for programming : Marc-Olivier Méhu
Technical & hardware support : Manuel Goepfert

Contact : metmap@orbifly.com




SOURCES & CREDITS :

   NOAA       Earth
Advisory